Retour au catalogue

LINGQIAO VIDEO B

ActifScienceSSO
NORAD 40960·PAYLOAD·🇨🇳 China

Lancé Oct 7, 2015 depuis Jiuquan Satellite Launch Center

Loading…

Prochains Passages (prochaines 24 heures)

TLE

FraisSource: Space-Track

Époque: Sep 14, 2026, 14:16 UTC

1 40960U 15057C   26257.59447753  .00000000  00000-0  68606-5 0  9994
2 40960  97.6663 249.1649 0016648 344.2048  15.8642 14.77598746588659

Suivez LINGQIAO VIDEO B en temps réel avec AllMySat

Download on the App Store